Location: College Park
(38.9810°N, 76.9370°W)
Time: 08:43:22
(UTC-04:00)

Hubble Space Telescope - Pass Details

Date: 10 January 2018
Orbit: 537 x 541 km, 28.5° (Epoch: 18 June)

Event Time Altitude Azimuth Distance (km) Brightness Sun altitude
Exits shadow 05:47:30 12° 213° (SSW) 1,657 3.1 -18.8°
Maximum altitude 05:48:43 13° 194° (SSW) 1,579 3.1 -18.6°
Drops below altitude 10° 05:50:45 10° 164° (SSE) 1,784 3.8 -18.2°
Sets 05:54:01 0° 137° (SE) 2,672 5.3 -17.6°
